User: anonymous   Login
Location: Maiden
(35.5760°N, 81.2120°W)
Time: 10:58:08
(UTC-04:00)
Language:

Transit 2A Rocket - Orbit

View from above orbital plane
View from above orbital plane
View from above satellite
View from above satellite

Ground track
Ground track

The orbit data is extracted from the following two-line orbital elements,

1    47U 60007C   20217.48490750 -.00000054  00000-0  13340-4 0  9998
2    47  66.6662  26.5720 0235434 268.1647  89.2481 14.42095335142041
Epoch (UTC): 04 August 2020 11:38:16
Eccentricity: 0.0235434
inclination: 66.6662°
perigee height: 584 km
apogee height: 919 km
right ascension of ascending node: 26.5720°
argument of perigee: 268.1647°
revolutions per day: 14.42095335
mean anomaly at epoch: 89.2481°
orbit number at epoch: 14204

The dashed part of the orbit path shows where the satellite is in the earth's shadow,  

DLR